Weather History for KLJF - September, 2011

Change the Weather History Date:

Sunday, September 25, 2011

  Actual Average Record
Temperature  
Mean Temperature 52 °F -  
Max Temperature 64 °F 68 °F 86 °F (1990)
Min Temperature 39 °F 43 °F 31 °F (1961)
Degree Days  
Heating Degree Days 14    
Growing Degree Days 2 (Base 50)    
Moisture  
Dew Point 45 °F    
Average Humidity 82    
Maximum Humidity 100    
Minimum Humidity 49    
Precipitation  
Precipitation 0.00 in - - ()
Sea Level Pressure  
Sea Level Pressure 30.01 in    
Wind  
Wind Speed 2 mph (ENE)    
Max Wind Speed 10 mph    
Max Gust Speed -    
Visibility 7 miles    
Events Fog    
Averages and records for this station are not official NWS values.
T = Trace of Precipitation, MM = Missing Value Source: NWS Daily Summary

Daily Weather History Graph

Daily Weather History Graph

Search for Another Location

Airport or City:

Trip Planner

Search our weather history database for the weather conditions in past years. The results will help you decide how hot, cold, wet, or windy it might be!

Date:

Astronomy

Sep. 25, 2011 Rise Set
Actual Time 7:08 AM CDT 7:10 PM CDT
Civil Twilight 6:39 AM CDT 7:39 PM CDT
Nautical Twilight 6:04 AM CDT 8:13 PM CDT
Astronomical Twilight 5:29 AM CDT 8:48 PM CDT
Moon 4:52 AM CDT (9/25) 5:53 PM CDT (9/25)
Length of Visible Light 13h 00m
Length of Day
12h 01m
Waning Crescent, 5% of the Moon is Illuminated
Sep 25
Waning Crescent
Sep 27
New
Oct 3
First Quarter
Oct 11
Full
Oct 19
Last Quarter

Hourly Weather History & Observations

Time (CDT) Temp. Windchill Dew Point Humidity Pressure Visibility Wind Dir Wind Speed Gust Speed Precip Events Conditions
12:13 AM 44.6 °F - 44.6 °F 100% 30.04 in 10.0 mi Calm Calm - N/A   Clear
12:33 AM 44.6 °F - 42.8 °F 93% 30.03 in 10.0 mi Calm Calm - N/A   Clear
12:53 AM 42.8 °F - 42.8 °F 100% 30.03 in 7.0 mi Calm Calm - N/A   Clear
1:13 AM 42.8 °F - 42.8 °F 100% 30.02 in 10.0 mi Calm Calm - N/A   Clear
1:33 AM 42.8 °F - 42.8 °F 100% 30.03 in 4.0 mi Calm Calm - N/A   Clear
1:53 AM 42.8 °F - 42.8 °F 100% 30.03 in 7.0 mi Calm Calm - N/A   Clear
2:13 AM 42.8 °F - 42.8 °F 100% 30.03 in 7.0 mi Calm Calm - N/A   Clear
2:33 AM 42.8 °F - 42.8 °F 100% 30.03 in 7.0 mi Calm Calm - N/A   Clear
2:53 AM 42.8 °F - 42.8 °F 100% 30.04 in 4.0 mi Calm Calm - N/A   Clear
3:13 AM 42.8 °F 41.1 °F 42.8 °F 100% 30.04 in 7.0 mi East 3.5 mph - N/A   Clear
3:33 AM 42.8 °F - 42.8 °F 100% 30.04 in 7.0 mi Calm Calm - N/A   Clear
4:13 AM 42.8 °F - 42.8 °F 100% 30.03 in 4.0 mi Calm Calm - N/A   Scattered Clouds
4:33 AM 42.8 °F - 42.8 °F 100% 30.03 in 4.0 mi Calm Calm - N/A   Scattered Clouds
4:53 AM 42.8 °F - 42.8 °F 100% 30.04 in 4.0 mi Calm Calm - N/A   Scattered Clouds
5:13 AM 42.8 °F - 42.8 °F 100% 30.03 in 3.0 mi Calm Calm - N/A   Clear
5:33 AM 41.0 °F - 41.0 °F 100% 30.03 in 2.0 mi Calm Calm - N/A   Clear
5:53 AM 41.0 °F - 41.0 °F 100% 30.03 in 2.0 mi Calm Calm - N/A   Mostly Cloudy
6:13 AM 39.2 °F - 39.2 °F 100% 30.04 in 0.2 mi Calm Calm - N/A Fog Fog
6:33 AM 41.0 °F - 41.0 °F 100% 30.03 in 0.8 mi Calm Calm - N/A   Overcast
6:53 AM 39.2 °F 35.9 °F 39.2 °F 100% 30.04 in 0.2 mi East 4.6 mph - N/A Fog Fog
7:13 AM 39.2 °F - 39.2 °F 100% 30.04 in 0.2 mi Calm Calm - N/A Fog Fog
7:33 AM 41.0 °F - 41.0 °F 100% 30.04 in 0.2 mi Calm Calm - N/A Fog Fog
8:13 AM 42.8 °F 41.1 °F 42.8 °F 100% 30.04 in 0.2 mi East 3.5 mph - N/A Fog Fog
8:33 AM 42.8 °F 41.1 °F 42.8 °F 100% 30.06 in 3.0 mi East 3.5 mph - N/A   Mostly Cloudy
8:53 AM 44.6 °F - 44.6 °F 100% 30.06 in 4.0 mi Calm Calm - N/A   Scattered Clouds
9:13 AM 46.4 °F - 46.4 °F 100% 30.05 in 4.0 mi Calm Calm - N/A   Scattered Clouds
9:33 AM 48.2 °F - 48.2 °F 100% 30.06 in 5.0 mi East 4.6 mph - N/A   Scattered Clouds
9:53 AM 50.0 °F - 50.0 °F 100% 30.05 in 7.0 mi ESE 4.6 mph - N/A   Scattered Clouds
10:13 AM 53.6 °F - 53.6 °F 100% 30.05 in 10.0 mi East 4.6 mph - N/A   Clear
10:33 AM 55.4 °F - 50.0 °F 82% 30.05 in 10.0 mi ESE 5.8 mph - N/A   Clear
11:13 AM 59.0 °F - 46.4 °F 63% 30.04 in 10.0 mi East 5.8 mph - N/A   Clear
11:33 AM 59.0 °F - 44.6 °F 59% 30.04 in 10.0 mi ESE 4.6 mph - N/A   Clear
11:53 AM 60.8 °F - 44.6 °F 55% 30.03 in 10.0 mi SSE 5.8 mph - N/A   Clear
12:13 PM 60.8 °F - 44.6 °F 55% 30.02 in 10.0 mi SSE 3.5 mph - N/A   Scattered Clouds
12:33 PM 62.6 °F - 44.6 °F 52% 30.02 in 10.0 mi SE 4.6 mph - N/A   Scattered Clouds
12:53 PM 62.6 °F - 44.6 °F 52% 30.01 in 10.0 mi NE 3.5 mph - N/A   Scattered Clouds
1:13 PM 60.8 °F - 44.6 °F 55% 30.01 in 10.0 mi ENE 6.9 mph - N/A   Mostly Cloudy
1:33 PM 62.6 °F - 44.6 °F 52% 30.00 in 10.0 mi East 6.9 mph - N/A   Scattered Clouds
1:53 PM 64.4 °F - 44.6 °F 49% 29.99 in 10.0 mi ENE 6.9 mph - N/A   Scattered Clouds
2:13 PM 62.6 °F - 44.6 °F 52% 29.98 in 10.0 mi East 6.9 mph - N/A   Scattered Clouds
2:33 PM 62.6 °F - 44.6 °F 52% 29.98 in 10.0 mi NE 8.1 mph - N/A   Mostly Cloudy
2:53 PM 62.6 °F - 44.6 °F 52% 29.98 in 10.0 mi ENE 6.9 mph - N/A   Overcast
3:13 PM 62.6 °F - 44.6 °F 52% 29.98 in 10.0 mi NE 10.4 mph - N/A   Mostly Cloudy
4:13 PM 60.8 °F - 44.6 °F 55% 29.97 in 10.0 mi ENE 6.9 mph - N/A   Mostly Cloudy
4:33 PM 62.6 °F - 44.6 °F 52% 29.97 in 10.0 mi ENE 6.9 mph - N/A   Mostly Cloudy
4:53 PM 62.6 °F - 44.6 °F 52% 29.96 in 10.0 mi NE 4.6 mph - N/A   Scattered Clouds
5:33 PM 62.6 °F - 44.6 °F 52% 29.97 in 10.0 mi East 8.1 mph - N/A   Scattered Clouds
6:13 PM 60.8 °F - 46.4 °F 59% 29.97 in 10.0 mi NE 4.6 mph - N/A   Clear
6:53 PM 59.0 °F - 46.4 °F 63% 29.96 in 10.0 mi NE 4.6 mph - N/A   Clear
7:33 PM 55.4 °F - 46.4 °F 72% 29.96 in 7.0 mi Calm Calm - N/A   Clear
7:53 PM 53.6 °F - 48.2 °F 82% 29.96 in 10.0 mi NNE 3.5 mph - N/A   Clear
8:13 PM 53.6 °F - 48.2 °F 82% 29.97 in 10.0 mi Calm Calm - N/A   Scattered Clouds
8:53 PM 53.6 °F - 48.2 °F 82% 29.97 in 10.0 mi NNE 3.5 mph - N/A   Overcast
9:13 PM 53.6 °F - 48.2 °F 82% 29.97 in 10.0 mi Calm Calm - N/A   Mostly Cloudy
9:33 PM 53.6 °F - 48.2 °F 82% 29.97 in 10.0 mi NNE 4.6 mph - N/A   Overcast
10:13 PM 53.6 °F - 48.2 °F 82% 29.97 in 10.0 mi NNE 4.6 mph - N/A   Mostly Cloudy
10:33 PM 53.6 °F - 48.2 °F 82% 29.97 in 10.0 mi North 4.6 mph - N/A   Overcast
10:53 PM 51.8 °F - 48.2 °F 88% 29.96 in 10.0 mi North 5.8 mph - N/A   Mostly Cloudy
11:13 PM 51.8 °F - 48.2 °F 88% 29.96 in 10.0 mi North 4.6 mph - N/A   Scattered Clouds
11:33 PM 51.8 °F - 50.0 °F 94% 29.96 in 10.0 mi NNE 5.8 mph - N/A   Mostly Cloudy
11:53 PM 53.6 °F - 50.0 °F 88% 29.96 in 10.0 mi NNE 5.8 mph - N/A   Overcast